Time,TemperatureF,DewpointF,PressureIn,WindDirection,WindDirectionDegrees,WindSpeedMPH,WindSpeedGustMPH,Humidity,HourlyPrecipIn,Conditions,Clouds,dailyrainin,SoftwareType,DateUTC
2013-09-12 00:13:00,61.0,54.0,30.07,SW,225,0.0,0.0,77,0.00,,,0.00,,2013-09-12 05:13:00,
2013-09-12 00:23:00,61.0,54.0,30.07,SW,225,0.0,0.0,77,0.00,,,0.00,,2013-09-12 05:23:00,
2013-09-12 00:53:00,60.0,53.0,30.08,SW,225,0.0,0.0,78,0.00,,,0.00,,2013-09-12 05:53:00,
2013-09-12 01:12:00,59.0,52.0,30.08,SW,225,0.0,0.0,79,0.00,,,0.00,,2013-09-12 06:12:00,
2013-09-12 01:22:00,59.0,52.0,30.08,SW,225,0.0,0.0,79,0.00,,,0.00,,2013-09-12 06:22:00,
2013-09-12 01:52:00,59.0,52.0,30.08,SW,225,0.0,0.0,79,0.00,,,0.00,,2013-09-12 06:52:00,
2013-09-12 02:12:00,59.0,53.0,30.09,SW,225,0.0,0.0,80,0.00,,,0.00,,2013-09-12 07:12:00,
2013-09-12 02:22:00,59.0,53.0,30.09,SW,225,0.0,0.0,80,0.00,,,0.00,,2013-09-12 07:22:00,
2013-09-12 02:52:00,59.0,53.0,30.09,SSW,203,0.0,0.0,81,0.00,,,0.00,,2013-09-12 07:52:00,
2013-09-12 03:11:00,58.0,52.0,30.09,WSW,248,0.0,0.0,81,0.00,,,0.00,,2013-09-12 08:11:00,
2013-09-12 03:22:00,58.0,52.0,30.09,WSW,248,0.0,0.0,81,0.00,,,0.00,,2013-09-12 08:22:00,
2013-09-12 03:52:00,57.0,51.0,30.09,SE,135,0.0,0.0,81,0.00,,,0.00,,2013-09-12 08:52:00,
2013-09-12 04:02:00,57.0,51.0,30.09,SE,135,0.0,0.0,81,0.00,,,0.00,,2013-09-12 09:02:00,
2013-09-12 04:22:00,57.0,51.0,30.09,SE,135,0.0,0.0,81,0.00,,,0.00,,2013-09-12 09:22:00,
2013-09-12 04:53:00,57.0,51.0,30.09,SE,135,0.0,0.0,81,0.00,,,0.00,,2013-09-12 09:53:00,
2013-09-12 05:12:00,56.0,50.0,30.09,SW,225,0.0,0.0,81,0.00,,,0.00,,2013-09-12 10:12:00,
2013-09-12 05:23:00,56.0,50.0,30.09,SW,225,0.0,0.0,81,0.00,,,0.00,,2013-09-12 10:23:00,
2013-09-12 05:53:00,56.0,51.0,30.11,SE,135,0.0,0.0,82,0.00,,,0.00,,2013-09-12 10:53:00,
2013-09-12 06:11:00,56.0,51.0,30.12,SE,135,0.0,0.0,82,0.00,,,0.00,,2013-09-12 11:11:00,
2013-09-12 06:22:00,56.0,51.0,30.12,SE,135,0.0,0.0,82,0.00,,,0.00,,2013-09-12 11:22:00,
2013-09-12 06:52:00,56.0,51.0,30.13,SW,225,0.0,0.0,82,0.00,,,0.00,,2013-09-12 11:52:00,
2013-09-12 07:12:00,56.0,51.0,30.14,SW,225,0.0,0.0,82,0.00,,,0.00,,2013-09-12 12:12:00,
2013-09-12 07:22:00,56.0,51.0,30.14,SW,225,0.0,0.0,82,0.00,,,0.00,,2013-09-12 12:22:00,
2013-09-12 07:52:00,56.0,51.0,30.15,SW,225,0.0,0.0,82,0.00,,,0.00,,2013-09-12 12:52:00,
2013-09-12 08:22:00,56.0,51.0,30.15,SW,225,0.0,0.0,82,0.00,,,0.00,,2013-09-12 13:22:00,
2013-09-12 08:52:00,57.0,52.0,30.15,West,270,0.0,0.0,84,0.00,,,0.00,,2013-09-12 13:52:00,
2013-09-12 09:22:00,57.0,52.0,30.16,SW,225,0.0,0.0,84,0.00,,,0.00,,2013-09-12 14:22:00,
2013-09-12 09:52:00,58.0,53.0,30.17,WSW,248,0.0,0.0,84,0.00,,,0.00,,2013-09-12 14:52:00,
2013-09-12 10:11:00,58.0,53.0,30.18,WSW,248,0.0,0.0,83,0.00,,,0.00,,2013-09-12 15:11:00,
2013-09-12 10:22:00,58.0,53.0,30.18,WSW,248,0.0,0.0,83,0.00,,,0.00,,2013-09-12 15:22:00,
2013-09-12 10:54:00,59.0,54.0,30.18,WSW,244,1.0,1.0,83,0.00,,,0.00,,2013-09-12 15:54:00,
2013-09-12 11:13:00,60.0,54.0,30.19,West,270,1.0,1.0,82,0.00,,,0.00,,2013-09-12 16:13:00,
2013-09-12 11:23:00,60.0,54.0,30.19,West,270,1.0,1.0,82,0.00,,,0.00,,2013-09-12 16:23:00,
2013-09-12 11:33:00,60.0,54.0,30.19,West,270,1.0,1.0,82,0.00,,,0.00,,2013-09-12 16:33:00,
2013-09-12 12:12:00,62.0,54.0,30.19,SW,225,2.0,2.0,76,0.00,,,0.00,,2013-09-12 17:12:00,
2013-09-12 12:23:00,62.0,54.0,30.19,SW,225,2.0,2.0,76,0.00,,,0.00,,2013-09-12 17:23:00,
2013-09-12 12:54:00,62.0,53.0,30.19,South,180,0.0,0.0,73,0.00,,,0.00,,2013-09-12 17:54:00,
2013-09-12 13:02:00,62.0,53.0,30.19,South,180,0.0,0.0,73,0.00,,,0.00,,2013-09-12 18:02:00,
2013-09-12 13:52:00,64.0,54.0,30.18,WNW,294,1.0,2.0,69,0.00,,,0.00,,2013-09-12 18:52:00,
2013-09-12 14:12:00,65.0,53.0,30.19,NNW,344,1.0,1.0,66,0.00,,,0.00,,2013-09-12 19:12:00,
2013-09-12 14:22:00,65.0,53.0,30.19,NNW,344,1.0,1.0,66,0.00,,,0.00,,2013-09-12 19:22:00,
2013-09-12 14:52:00,65.0,53.0,30.19,NW,326,1.0,2.0,65,0.00,,,0.00,,2013-09-12 19:52:00,
2013-09-12 15:12:00,65.0,52.0,30.19,SE,135,1.0,1.0,63,0.00,,,0.00,,2013-09-12 20:12:00,
2013-09-12 15:22:00,65.0,52.0,30.19,SE,135,1.0,1.0,63,0.00,,,0.00,,2013-09-12 20:22:00,
2013-09-12 15:52:00,65.0,52.0,30.18,WNW,288,2.0,2.0,63,0.00,,,0.00,,2013-09-12 20:52:00,
2013-09-12 16:11:00,65.0,52.0,30.18,NNW,338,1.0,1.0,63,0.00,,,0.00,,2013-09-12 21:11:00,
2013-09-12 16:22:00,65.0,52.0,30.18,NNW,338,1.0,1.0,63,0.00,,,0.00,,2013-09-12 21:22:00,
2013-09-12 16:54:00,65.0,52.0,30.18,NNW,332,1.0,1.0,63,0.00,,,0.00,,2013-09-12 21:54:00,
2013-09-12 17:13:00,64.0,51.0,30.18,NNW,347,1.0,2.0,62,0.00,,,0.00,,2013-09-12 22:13:00,
2013-09-12 17:24:00,64.0,51.0,30.18,NNW,347,1.0,2.0,62,0.00,,,0.00,,2013-09-12 22:24:00,
2013-09-12 17:54:00,65.0,52.0,30.17,NE,45,1.0,1.0,63,0.00,,,0.00,,2013-09-12 22:54:00,
2013-09-12 18:12:00,64.0,52.0,30.18,SSW,203,1.0,1.0,64,0.00,,,0.00,,2013-09-12 23:12:00,
2013-09-12 18:23:00,64.0,52.0,30.18,SSW,203,1.0,1.0,64,0.00,,,0.00,,2013-09-12 23:23:00,
2013-09-12 18:42:00,63.0,50.0,30.17,North,0,0.0,0.0,63,0.00,,,0.00,,2013-09-12 23:42:00,
2013-09-12 18:53:00,63.0,50.0,30.17,North,0,0.0,0.0,63,0.00,,,0.00,,2013-09-12 23:53:00,
2013-09-12 19:11:00,63.0,51.0,30.17,SSE,158,0.0,0.0,64,0.00,,,0.00,,2013-09-13 00:11:00,
2013-09-12 19:22:00,63.0,51.0,30.17,SSE,158,0.0,0.0,64,0.00,,,0.00,,2013-09-13 00:22:00,
2013-09-12 19:52:00,62.0,51.0,30.17,SW,231,0.0,0.0,66,0.00,,,0.00,,2013-09-13 00:52:00,
2013-09-12 20:11:00,62.0,51.0,30.17,SE,135,0.0,0.0,66,0.00,,,0.00,,2013-09-13 01:11:00,
2013-09-12 20:22:00,62.0,51.0,30.17,SE,135,0.0,0.0,66,0.00,,,0.00,,2013-09-13 01:22:00,
2013-09-12 20:53:00,61.0,50.0,30.18,SE,135,0.0,0.0,67,0.00,,,0.00,,2013-09-13 01:53:00,
2013-09-12 21:12:00,60.0,50.0,30.18,SE,135,0.0,0.0,69,0.00,,,0.00,,2013-09-13 02:12:00,
2013-09-12 21:22:00,60.0,50.0,30.18,SE,135,0.0,0.0,69,0.00,,,0.00,,2013-09-13 02:22:00,
2013-09-12 21:53:00,58.0,49.0,30.19,SE,135,0.0,0.0,72,0.00,,,0.00,,2013-09-13 02:53:00,
2013-09-12 22:12:00,57.0,49.0,30.19,SE,135,0.0,0.0,74,0.00,,,0.00,,2013-09-13 03:12:00,
2013-09-12 22:22:00,57.0,49.0,30.19,SE,135,0.0,0.0,74,0.00,,,0.00,,2013-09-13 03:22:00,
2013-09-12 22:55:00,55.0,47.0,30.19,SE,135,0.0,0.0,75,0.00,,,0.00,,2013-09-13 03:55:00,
2013-09-12 23:14:00,54.0,46.0,30.19,SE,135,0.0,0.0,75,0.00,,,0.00,,2013-09-13 04:14:00,
2013-09-12 23:24:00,54.0,46.0,30.19,SE,135,0.0,0.0,75,0.00,,,0.00,,2013-09-13 04:24:00,
2013-09-12 23:44:00,54.0,47.0,30.19,SE,135,0.0,0.0,76,0.00,,,0.00,,2013-09-13 04:44:00,
2013-09-12 23:54:00,54.0,47.0,30.19,SE,135,0.0,0.0,76,0.00,,,0.00,,2013-09-13 04:54:00,